Location: Newark
(44.1667°N, 8.2500°E)
Time: 21:38:18
(UTC+00:00)

Envisat - Pass Details

Date: 17 November 2019
Orbit: 764 x 766 km, 98.1° (Epoch: 15 December)

Event Time Altitude Azimuth Distance (km) Brightness Sun altitude
Rises 18:29:23 0° 201° (SSW) 3,220 6.5 -26.9°
Reaches altitude 10° 18:32:09 10° 216° (SW) 2,299 5.9 -27.4°
Maximum altitude 18:36:06 23° 268° (W) 1,608 5.4 -28.1°
Drops below altitude 10° 18:40:03 10° 319° (NW) 2,312 6.0 -28.8°
Sets 18:42:52 0° 334° (NNW) 3,243 6.6 -29.3°
